Location: Cannifist
(18.2333°N, 63.0167°W)
Time: 12:40:44
(UTC+00:00)

N. Korean satellite - Visible Passes

Search period start: 18 June 2021 00:00
Search period end: 28 June 2021 00:00
Orbit: 450 x 500 km, 97.2° (Epoch: 17 June)

Date Brightness Start Highest point End Pass type
(mag) Time Alt. Az. Time Alt. Az. Time Alt. Az.
18 Jun 9.2 08:41:55 10° NE 08:44:41 21° E 08:47:29 10° SSE visible
21 Jun 8.5 08:52:50 10° NE 08:56:06 31° E 08:59:22 10° SSE visible
22 Jun 9.7 08:27:18 10° ENE 08:28:47 12° E 08:30:18 10° ESE visible
24 Jun 7.6 09:03:55 10° NNE 09:07:27 48° E 09:11:00 10° S visible
25 Jun 9.4 08:37:35 10° NE 08:40:09 18° E 08:42:43 10° SE visible
